Regional Weather Roundup
Issued by NWS State College, PA

Home | Current Version | Previous Version | Text Only | Print | Product List | Glossary Off
Versions: 1 2 3 4 5 6 7 8 9 10 11 12 13 14 15 16 17 18 19 20 21 22 23 24 25 26 27 28 29 30 31 32 33 34 35 36 37 38 39 40 41 42 43 44 45 46 47 48 49 50

000
ASUS41 KCTP 040903
RWRCTP

REGIONAL WEATHER ROUNDUP
NATIONAL WEATHER SERVICE STATE COLLEGE PA
500 AM EDT TUE AUG 04 2015

Note: "fair" indicates few or no clouds below 12,000 feet with no
significant weather and/or obstructions to visibility.

* = STATION THAT DOES NOT REPORT PRECIPITATION /E.G. RAIN...SNOW...ETC/
    THUNDER OR FOG.

PAZ002>004-007>009-013>016-020>023-029>032-041000-
WESTERN PENNSYLVANIA

CITY           SKY/WX    TMP DP  RH WIND       PRES   REMARKS
ERIE           PTCLDY    64  60  87 S6        29.86R
MEADVILLE      CLEAR     61  58  90 SW5       29.89S
FRANKLIN*      CLEAR     59  55  88 W6        29.91R
NEW CASTLE     FAIR      62  62 100 CALM      29.91R
BEAVER COUNTY  NOT AVBL
BUTLER*          N/A     61  59  94 CALM      29.92R VSB 3/4
PITTSBURGH INT MOCLDY    65  62  90 W5        29.91R
PITTSBURGH     CLEAR     63  59  87 SW7       29.91R FOG
INDIANA*       MOCLDY    63  63 100 CALM      29.95R
LATROBE        NOT AVBL
WASHINGTON CO* NOT AVBL
$$

PAZ004>006-010>012-017>019-024>028-033>037-041-042-045-046-049>053-041000-
CENTRAL PENNSYLVANIA

CITY           SKY/WX    TMP DP  RH WIND       PRES   REMARKS
BRADFORD       FOG       54  53  97 CALM      29.90R VSB 1/4
DUBOIS         FOG       63  61  93 S5        29.90R VSB 1
CLEARFIELD     PTCLDY    62  60  93 W3        29.91R
JOHNSTOWN      PTCLDY    61  59  93 SW6       29.95R
ALTOONA        PTCLDY    65  61  87 SW7       29.92R
STATE COLLEGE  PTCLDY    62  60  94 S3        29.89S
WILLIAMSPORT   PTCLDY    67  62  84 CALM      29.84R
SELINSGROVE    PTCLDY    65  63  93 CALM      29.88R
FT INDIANTOWN  MOCLDY    65  64  97 NE1       29.88R
CAPITAL CITY   CLOUDY    69  64  84 W5        29.86R
HARRISBURG     CLOUDY    71  65  81 SW6       29.86R
YORK           CLOUDY    68  65  90 VRB3      29.88R
$$

PAZ038>040-043-044-047-048-054-055-060>062-067>071-041000-
EASTERN PENNSYLVANIA

CITY           SKY/WX    TMP DP  RH WIND       PRES   REMARKS
SCRANTON       CLOUDY    71  66  84 CALM      29.85R
MOUNT POCONO   CLOUDY    65  63  93 W3        29.89F
ALLENTOWN      CLOUDY    68  64  87 SE5       29.86R
QUAKERTOWN*    CLOUDY    66  64  94 CALM      29.86F
READING        CLOUDY    68  65  90 NW6       29.87R
LANCASTER      CLOUDY    68  64  87 W7        29.87R
COATESVILLE    LGT RAIN  68  68 100 E6        29.88S
POTTSTOWN      LGT RAIN  67  67 100 S6        29.88R
BLUE BELL      MOCLDY    68  68 100 CALM      29.86R
DOYLESTOWN     LGT RAIN  65  65 100 CALM      29.86S
WILLOW GROVE   NOT AVBL
NORTH PHILA    MOCLDY    72  62  71 CALM      29.88S
PHILADELPHIA   CLOUDY    76  64  66 CALM      29.88R
$$


USA.gov is the U.S. government's official web portal to all federal, state and local government web resources and services.